Total_Precipitation_Accumulation
0.08 0.16 0.41 0.51 0.57 0.59 0.57 0.55 0.53 0.53 0.54 0.55 0.55 0.53 0.51 0.51 0.55 0.50 0.47 0.43 0.46 0.55 0.64 0.67 0.62 0.55 0.47 0.44 0.41 0.34 0.30 0.26 0.24 0.21 0.18 0.22 0.25 0.26 0.21 0.22 0.27 0.33 0.40
0.07 0.15 0.38 0.49 0.62 0.62 0.62 0.58 0.54 0.53 0.57 0.62 0.66 0.64 0.58 0.54 0.54 0.50 0.47 0.47 0.49 0.55 0.67 0.69 0.61 0.49 0.36 0.28 0.25 0.22 0.20 0.16 0.13 0.08 0.05 0.07 0.13 0.17 0.18 0.18 0.22 0.30 0.33
0.08 0.16 0.37 0.53 0.63 0.65 0.65 0.61 0.56 0.54 0.61 0.72 0.78 0.75 0.66 0.56 0.54 0.54 0.49 0.50 0.55 0.63 0.66 0.62 0.54 0.42 0.31 0.25 0.20 0.16 0.15 0.11 0.08 0.04 0.04 0.07 0.12 0.16 0.17 0.18 0.23 0.30 0.32
0.12 0.19 0.36 0.62 0.68 0.68 0.68 0.67 0.64 0.62 0.62 0.71 0.82 0.77 0.68 0.64 0.63 0.57 0.53 0.54 0.58 0.61 0.58 0.53 0.45 0.36 0.26 0.20 0.18 0.17 0.14 0.11 0.07 0.05 0.08 0.10 0.13 0.21 0.23 0.24 0.27 0.32 0.35
0.22 0.29 0.48 0.70 0.80 0.75 0.73 0.70 0.72 0.72 0.71 0.73 0.78 0.78 0.72 0.68 0.69 0.66 0.59 0.57 0.56 0.58 0.53 0.46 0.37 0.29 0.22 0.18 0.16 0.16 0.14 0.11 0.06 0.05 0.09 0.12 0.17 0.29 0.32 0.31 0.31 0.33 0.33
0.33 0.47 0.70 0.87 0.91 0.87 0.81 0.76 0.78 0.82 0.88 0.86 0.85 0.82 0.78 0.74 0.75 0.73 0.64 0.53 0.51 0.50 0.49 0.44 0.34 0.28 0.23 0.18 0.16 0.14 0.14 0.12 0.06 0.05 0.08 0.12 0.18 0.36 0.38 0.33 0.34 0.35 0.37
0.43 0.62 0.88 1.07 1.09 1.02 0.94 0.93 0.93 0.96 1.00 1.00 0.96 0.92 0.84 0.83 0.82 0.76 0.64 0.52 0.51 0.50 0.51 0.46 0.36 0.29 0.26 0.22 0.19 0.15 0.12 0.09 0.05 0.06 0.10 0.14 0.24 0.39 0.37 0.36 0.41 0.44 0.46
0.70 0.89 1.11 1.28 1.25 1.12 1.02 0.97 0.96 1.03 1.05 1.04 0.98 0.95 0.92 0.90 0.89 0.83 0.70 0.59 0.57 0.58 0.59 0.53 0.45 0.35 0.29 0.25 0.21 0.17 0.11 0.07 0.06 0.07 0.11 0.14 0.27 0.42 0.40 0.36 0.41 0.47 0.53
1.20 1.34 1.39 1.42 1.35 1.29 1.14 1.01 0.97 1.01 1.07 1.08 1.03 0.98 0.97 0.97 1.01 0.91 0.80 0.73 0.66 0.64 0.64 0.60 0.52 0.44 0.38 0.32 0.23 0.16 0.10 0.07 0.06 0.06 0.07 0.12 0.26 0.47 0.52 0.48 0.52 0.54 0.54
1.66 1.76 1.77 1.72 1.58 1.45 1.32 1.10 0.99 1.01 1.04 1.06 1.04 0.94 0.86 0.90 0.95 0.87 0.75 0.75 0.72 0.68 0.63 0.57 0.54 0.53 0.47 0.40 0.26 0.15 0.10 0.09 0.07 0.06 0.08 0.16 0.33 0.56 0.68 0.65 0.67 0.63 0.55
2.02 2.07 2.14 2.10 1.91 1.75 1.52 1.21 1.09 1.10 1.11 1.05 1.01 0.89 0.88 0.93 0.93 0.79 0.69 0.63 0.61 0.61 0.58 0.57 0.56 0.55 0.50 0.43 0.31 0.19 0.13 0.11 0.08 0.07 0.11 0.23 0.42 0.61 0.67 0.66 0.67 0.59 0.50
2.21 2.25 2.29 2.32 2.27 2.13 1.87 1.56 1.41 1.28 1.22 1.08 0.93 0.93 0.87 0.89 0.94 0.84 0.77 0.65 0.59 0.56 0.55 0.58 0.61 0.59 0.51 0.43 0.36 0.23 0.18 0.15 0.14 0.12 0.14 0.24 0.41 0.60 0.67 0.65 0.61 0.56 0.47
2.38 2.44 2.44 2.52 2.47 2.33 2.07 1.77 1.56 1.46 1.38 1.27 1.07 0.99 0.93 0.95 0.95 0.97 0.92 0.81 0.70 0.60 0.59 0.57 0.59 0.50 0.44 0.41 0.39 0.28 0.23 0.21 0.19 0.16 0.17 0.22 0.41 0.65 0.77 0.73 0.62 0.55 0.51
2.52 2.47 2.52 2.59 2.57 2.43 2.18 1.97 1.69 1.57 1.50 1.45 1.30 1.19 1.16 1.09 1.03 0.97 0.90 0.81 0.80 0.70 0.68 0.63 0.55 0.47 0.42 0.37 0.37 0.36 0.31 0.28 0.26 0.24 0.22 0.23 0.36 0.59 0.72 0.73 0.70 0.65 0.62
2.47 2.52 2.59 2.54 2.50 2.48 2.38 2.14 1.85 1.69 1.56 1.49 1.52 1.39 1.31 1.23 1.14 1.10 1.01 0.91 0.80 0.77 0.77 0.74 0.65 0.60 0.54 0.47 0.41 0.40 0.39 0.34 0.31 0.30 0.29 0.25 0.27 0.40 0.56 0.70 0.80 0.81 0.80
2.21 2.44 2.59 2.59 2.51 2.44 2.45 2.36 2.07 1.75 1.67 1.62 1.57 1.55 1.48 1.39 1.30 1.24 1.13 1.08 0.96 0.86 0.83 0.82 0.74 0.73 0.73 0.67 0.56 0.48 0.44 0.40 0.35 0.32 0.31 0.31 0.31 0.32 0.43 0.61 0.75 0.85 0.95
1.98 2.21 2.44 2.64 2.65 2.50 2.44 2.49 2.43 2.11 1.83 1.63 1.60 1.60 1.58 1.50 1.42 1.34 1.29 1.18 1.05 0.98 0.95 0.97 0.94 0.91 0.84 0.78 0.70 0.64 0.59 0.53 0.47 0.41 0.38 0.35 0.36 0.36 0.42 0.55 0.68 0.81 0.96
1.84 2.03 2.22 2.35 2.55 2.54 2.45 2.42 2.45 2.34 2.11 1.87 1.66 1.62 1.58 1.50 1.50 1.50 1.44 1.41 1.26 1.17 1.12 1.06 1.05 1.01 0.91 0.84 0.77 0.73 0.70 0.67 0.63 0.60 0.56 0.50 0.46 0.40 0.42 0.53 0.64 0.76 0.88
1.74 1.94 2.21 2.18 2.30 2.53 2.69 2.59 2.43 2.32 2.16 2.00 1.80 1.60 1.52 1.57 1.59 1.55 1.41 1.41 1.47 1.36 1.24 1.17 1.11 1.07 0.99 0.93 0.90 0.83 0.77 0.73 0.71 0.70 0.71 0.67 0.63 0.58 0.52 0.56 0.59 0.61 0.70
1.74 1.90 2.16 2.18 2.27 2.48 2.75 2.76 2.64 2.45 2.20 2.08 1.86 1.62 1.51 1.51 1.60 1.54 1.42 1.40 1.45 1.42 1.31 1.24 1.15 1.11 1.07 1.07 1.03 0.94 0.85 0.79 0.77 0.75 0.72 0.73 0.72 0.68 0.64 0.59 0.55 0.56 0.59
1.86 1.89 2.04 2.17 2.27 2.37 2.48 2.46 2.34 2.29 2.23 2.14 1.99 1.84 1.70 1.62 1.64 1.63 1.52 1.49 1.49 1.44 1.37 1.38 1.40 1.31 1.21 1.20 1.14 0.96 0.85 0.80 0.75 0.74 0.72 0.67 0.65 0.66 0.66 0.64 0.58 0.54 0.55
1.77 1.84 2.01 2.16 2.22 2.21 2.31 2.46 2.37 2.40 2.40 2.38 2.30 2.14 1.97 1.85 1.78 1.73 1.71 1.69 1.62 1.53 1.48 1.45 1.46 1.44 1.35 1.34 1.31 1.23 1.01 0.87 0.76 0.69 0.69 0.65 0.63 0.64 0.64 0.68 0.68 0.60 0.53
1.64 1.86 1.98 2.07 2.18 2.20 2.41 2.82 2.77 2.63 2.56 2.52 2.43 2.32 2.20 2.09 2.00 1.83 1.77 1.83 1.79 1.66 1.57 1.52 1.49 1.47 1.51 1.48 1.41 1.46 1.22 0.94 0.79 0.72 0.68 0.64 0.63 0.66 0.69 0.70 0.73 0.69 0.59
1.45 1.71 1.99 2.10 2.23 2.39 2.60 2.81 2.86 2.60 2.41 2.37 2.38 2.37 2.35 2.16 2.08 2.02 1.93 1.87 1.88 1.83 1.70 1.64 1.60 1.56 1.58 1.56 1.49 1.34 1.24 1.05 0.96 0.82 0.70 0.67 0.65 0.63 0.64 0.67 0.70 0.73 0.74
1.31 1.49 1.74 2.01 2.13 2.37 2.55 2.64 2.80 2.61 2.34 2.36 2.37 2.33 2.36 2.27 2.09 2.05 1.98 1.87 1.77 1.73 1.74 1.74 1.69 1.64 1.56 1.46 1.40 1.31 1.24 1.09 0.93 0.89 0.76 0.66 0.67 0.65 0.63 0.66 0.70 0.74 0.77
1.15 1.27 1.43 1.67 1.79 1.91 2.12 2.34 2.51 2.53 2.45 2.37 2.25 2.20 2.20 2.17 2.12 2.08 2.06 1.93 1.78 1.67 1.60 1.62 1.65 1.64 1.61 1.52 1.41 1.34 1.28 1.21 1.07 1.02 0.95 0.78 0.75 0.71 0.70 0.71 0.70 0.72 0.73